Regional Weather Roundup
Issued by NWS Mobile, AL

Current Version | Previous Version | Text Only | Print | Product List | Glossary On
Versions: 1 2 3 4 5 6 7 8 9 10 11 12 13 14 15 16 17 18 19 20 21 22 23 24 25 26 27 28 29 30 31 32 33 34 35 36 37 38 39 40 41 42 43 44 45 46 47 48 49 50
000
ASUS44 KMOB 052212
RWRMOB
REGIONAL WEATHER ROUNDUP
NATIONAL WEATHER SERVICE MOBILE AL
400 PM CST THU MAR 05 2015

NOTE: "FAIR" INDICATES FEW OR NO CLOUDS BELOW 12,000 FEET WITH NO
      SIGNIFICANT WEATHER AND/OR OBSTRUCTIONS TO VISIBILITY.

  * THESE STATIONS ARE PART OF THE UNIVERSITY OF SOUTH ALABAMA
    MESONET AND ARE NOT UNDER NWS OR FAA QUALITY CONTROL.

ALZ061>064-052300-
COASTAL ALABAMA

CITY           SKY/WX    TMP DP  RH WIND       PRES   REMARKS
MOBILE REG APT CLOUDY    40  32  73 N24G30    30.25R
BROOKLEY FIELD CLOUDY    44  35  70 N20G31    30.24R
USA CAMPUS*      N/A     41  36  81 NE10      30.24R
DOG RIVER*     NOT AVBL


CITY           SKY/WX    TMP DP  RH WIND       PRES   REMARKS
MOUNT VERNON*    N/A     36  30  80 NW13      30.30R
SARALAND*      NOT AVBL
BAY MINETTE*   NOT AVBL
LOXLEY*          N/A     39  36  87 VRB12     30.22R
ROBERTSDALE*     N/A     41  36  81 VRB14     30.21R
FAIRHOPE*      NOT AVBL
ELBERTA*         N/A     43  37  81 N20       30.18R
FOLEY*         NOT AVBL
GRAND BAY*       N/A     43  34  70 VRB15     30.22R
DAUPHIN ISLND* NOT AVBL
BON SCOUR NWR* NOT AVBL
GULF SHORES    CLOUDY    46  38  74 N13G24    30.19R

$$

ALZ051>060-052300-
INTERIOR SOUTHWEST AND SOUTH CENTRAL ALABAMA

CITY           SKY/WX    TMP DP  RH WIND       PRES   REMARKS
GREENVILLE     CLOUDY    38  33  82 N15       30.23R
EVERGREEN      CLOUDY    38  33  82 NW13G21   30.25R
CASTLEBERRY*   NOT AVBL
ATMORE*          N/A     37  34  87 N24       30.25R
DIXIE*         NOT AVBL
ANDALUSIA/OPP  CLOUDY    46  37  71 N20G25    30.19
ANDALUSIA*       N/A     41  37  87 N13       30.18R
FLORALA APT    CLOUDY    44  38  79 N9G16     30.18R
FLORALA*         N/A     45  39  81 NW10      30.14R

$$

FLZ001>006-052300-
WESTERN FLORIDA PANHANDLE

CITY           SKY/WX    TMP DP  RH WIND       PRES   REMARKS
PENSACOLA      CLOUDY    45  38  76 N22       30.17R
NAS PENSACOLA  CLOUDY    46  38  73 N20G26    30.18
MILTON         PTSUNNY   43  37  79 N20G31    30.19
WHTNG S FIELD  CLOUDY    46  37  71 N22G30    30.18R


CITY           SKY/WX    TMP DP  RH WIND       PRES   REMARKS
WALNUT HILL*   NOT AVBL
JAY*             N/A     39  36  87 NW12      30.23R
DUKE FIELD     PTSUNNY   51  41  68 N21G28    30.14R
CRESTVIEW      CLOUDY    48  39  71 N14G25    30.18R
VALPARAISO     PTSUNNY   55  44  66 N17G25    30.11R
DESTIN         CLOUDY    58  47  66 N18G25    30.12R

$$

MSZ076-079-052300-
INTERIOR SOUTHEAST MISSISSIPPI

CITY           SKY/WX    TMP DP  RH WIND       PRES   REMARKS
LEAKESVILLE*   NOT AVBL
AGRICOLA*      NOT AVBL

$$

MARINE OBSERVATIONS

STATION/POSITION TIME  TEMP    WIND        PRES    WAVE
                       AIR SEA DIR/SP/G            HT/PER
                 (UTC) (F)     (DEG/KT/KT) (MB)    (FT/S)
E DAUPHIN ISLAND NOT AVBL
12 S ORANGE BCH  NOT AVBL

$$

SELECTED LOCATIONS ACROSS THE REGION

CITY           SKY/WX    TMP DP  RH WIND       PRES   REMARKS
NEW ORLEANS    CLOUDY    38  31  76 N24G35    30.30R
GULFPORT       CLOUDY    39  32  76 N23G30    30.27R
PASCAGOULA AP  CLOUDY    42  34  73 N20G31    30.24R
PASCAGOULA*    NOT AVBL
HATTIESBURG    CLOUDY    35  31  85 N12       30.36R WCI  27
LAUREL         CLOUDY    34  27  75 N15G22    30.36R WCI  24
MERIDIAN       MIX PCPN  32  26  78 N15       30.38S WCI  22
JACKSON        PTSUNNY   33  24  69 NW16      30.43R WCI  23
MONTGOMERY     CLOUDY    39  30  70 N14       30.25S
TROY           CLOUDY    41  36  82 N16G25    30.21R
KINSTON*       NOT AVBL
GENEVA*        NOT AVBL
ASHFORD*         N/A     41  37  87 N13       30.18R
DOTHAN         PTSUNNY   52  43  71 NW20G26   30.15R
PANAMA CITY    CLOUDY    59  52  77 NW14G20   30.08R

$$



USA.gov is the U.S. government's official web portal to all federal, state and local government web resources and services.